Time,TemperatureF,DewpointF,PressureIn,WindDirection,WindDirectionDegrees,WindSpeedMPH,WindSpeedGustMPH,Humidity,HourlyPrecipIn,Conditions,Clouds,dailyrainin,SoftwareType,DateUTC
2013-12-15 00:09:00,44.1,44.0,29.73,West,281,0.0,9.0,98,0.00,,,0.00,weatherlink.com 1.10,2013-12-15 05:09:00,
2013-12-15 00:24:00,43.9,43.0,29.71,South,174,0.0,5.0,95,0.00,,,0.00,weatherlink.com 1.10,2013-12-15 05:24:00,
2013-12-15 00:39:00,43.9,42.0,29.73,SW,222,3.0,8.0,94,0.00,,,0.00,weatherlink.com 1.10,2013-12-15 05:39:00,
2013-12-15 00:54:00,43.4,42.0,29.71,WSW,248,2.0,4.0,94,0.00,,,0.00,weatherlink.com 1.10,2013-12-15 05:54:00,
2013-12-15 01:09:00,44.3,42.0,29.72,NNE,21,0.0,10.0,93,0.00,,,0.00,weatherlink.com 1.10,2013-12-15 06:09:00,
2013-12-15 01:24:00,44.3,42.0,29.72,SSW,209,3.0,4.0,92,0.00,,,0.00,weatherlink.com 1.10,2013-12-15 06:24:00,
2013-12-15 01:39:00,43.1,42.0,29.72,WNW,295,4.0,10.0,94,0.00,,,0.00,weatherlink.com 1.10,2013-12-15 06:39:00,
2013-12-15 01:54:00,42.5,41.0,29.72,SSW,211,2.0,9.0,95,0.00,,,0.00,weatherlink.com 1.10,2013-12-15 06:54:00,
2013-12-15 02:09:00,43.2,42.0,29.72,South,184,2.0,7.0,95,0.00,,,0.00,weatherlink.com 1.10,2013-12-15 07:09:00,
2013-12-15 02:24:00,42.6,41.0,29.73,WNW,282,3.0,16.0,95,0.00,,,0.00,weatherlink.com 1.10,2013-12-15 07:24:00,
2013-12-15 02:39:00,41.5,40.0,29.71,NNW,347,4.0,7.0,95,0.01,,,0.01,weatherlink.com 1.10,2013-12-15 07:39:00,
2013-12-15 02:54:00,40.9,40.0,29.71,West,271,1.0,9.0,96,0.01,,,0.01,weatherlink.com 1.10,2013-12-15 07:54:00,
2013-12-15 03:24:00,40.2,39.0,29.71,SW,234,1.0,10.0,96,0.01,,,0.01,weatherlink.com 1.10,2013-12-15 08:24:00,
2013-12-15 03:39:00,40.4,39.0,29.71,West,276,1.0,10.0,95,0.00,,,0.01,weatherlink.com 1.10,2013-12-15 08:39:00,
2013-12-15 03:54:00,40.4,39.0,29.71,WNW,283,2.0,12.0,95,0.00,,,0.01,weatherlink.com 1.10,2013-12-15 08:54:00,
2013-12-15 04:09:00,39.7,38.0,29.71,WSW,250,2.0,8.0,95,0.00,,,0.01,weatherlink.com 1.10,2013-12-15 09:09:00,
2013-12-15 04:25:00,38.6,37.0,29.71,WNW,295,3.0,9.0,94,0.00,,,0.01,weatherlink.com 1.10,2013-12-15 09:25:00,
2013-12-15 04:55:00,37.5,36.0,29.71,SSW,211,2.0,13.0,93,0.00,,,0.01,weatherlink.com 1.10,2013-12-15 09:55:00,
2013-12-15 05:10:00,37.0,35.0,29.72,West,276,1.0,10.0,92,0.00,,,0.01,weatherlink.com 1.10,2013-12-15 10:10:00,
2013-12-15 05:25:00,36.4,34.0,29.71,SSW,207,3.0,15.0,89,0.00,,,0.01,weatherlink.com 1.10,2013-12-15 10:25:00,
2013-12-15 05:40:00,35.5,33.0,29.70,NNE,22,5.0,11.0,89,0.00,,,0.01,weatherlink.com 1.10,2013-12-15 10:40:00,
2013-12-15 05:55:00,35.2,32.0,29.71,ENE,58,6.0,13.0,88,0.00,,,0.01,weatherlink.com 1.10,2013-12-15 10:55:00,
2013-12-15 06:10:00,34.5,31.0,29.70,WNW,300,4.0,17.0,88,0.00,,,0.01,weatherlink.com 1.10,2013-12-15 11:10:00,
2013-12-15 06:25:00,33.8,31.0,29.72,NW,309,6.0,15.0,88,0.00,,,0.01,weatherlink.com 1.10,2013-12-15 11:25:00,
2013-12-15 06:40:00,33.3,30.0,29.72,SSW,210,5.0,19.0,88,0.00,,,0.01,weatherlink.com 1.10,2013-12-15 11:40:00,
2013-12-15 06:55:00,32.7,30.0,29.73,SSW,212,8.0,18.0,88,0.00,,,0.01,weatherlink.com 1.10,2013-12-15 11:55:00,
2013-12-15 07:10:00,32.1,29.0,29.73,NW,306,2.0,21.0,89,0.00,,,0.01,weatherlink.com 1.10,2013-12-15 12:10:00,
2013-12-15 07:25:00,31.7,29.0,29.75,ENE,76,0.0,11.0,90,0.00,,,0.01,weatherlink.com 1.10,2013-12-15 12:25:00,
2013-12-15 07:40:00,31.6,29.0,29.76,South,182,5.0,12.0,89,0.00,,,0.01,weatherlink.com 1.10,2013-12-15 12:40:00,
2013-12-15 07:55:00,31.4,29.0,29.77,SW,220,6.0,13.0,89,0.00,,,0.01,weatherlink.com 1.10,2013-12-15 12:55:00,
2013-12-15 08:10:00,31.2,28.0,29.78,SSW,207,3.0,14.0,89,0.00,,,0.01,weatherlink.com 1.10,2013-12-15 13:10:00,
2013-12-15 08:25:00,31.1,28.0,29.78,WNW,289,4.0,13.0,89,0.00,,,0.01,weatherlink.com 1.10,2013-12-15 13:25:00,
2013-12-15 08:40:00,30.8,28.0,29.79,North,359,6.0,11.0,89,0.00,,,0.01,weatherlink.com 1.10,2013-12-15 13:40:00,
2013-12-15 08:56:00,30.7,28.0,29.80,SW,235,2.0,11.0,89,0.00,,,0.01,weatherlink.com 1.10,2013-12-15 13:56:00,
2013-12-15 09:11:00,30.8,28.0,29.82,WSW,245,0.0,12.0,89,0.00,,,0.01,weatherlink.com 1.10,2013-12-15 14:11:00,
2013-12-15 09:26:00,31.2,28.0,29.82,NE,47,2.0,10.0,89,0.00,,,0.01,weatherlink.com 1.10,2013-12-15 14:26:00,
2013-12-15 09:41:00,31.3,28.0,29.83,NNW,330,3.0,14.0,88,0.00,,,0.01,weatherlink.com 1.10,2013-12-15 14:41:00,
2013-12-15 09:56:00,31.7,29.0,29.84,WSW,250,0.0,12.0,89,0.00,,,0.01,weatherlink.com 1.10,2013-12-15 14:56:00,
2013-12-15 10:11:00,33.1,29.0,29.85,SW,223,2.0,11.0,85,0.00,,,0.01,weatherlink.com 1.10,2013-12-15 15:11:00,
2013-12-15 10:26:00,33.9,30.0,29.86,SW,229,1.0,11.0,85,0.00,,,0.01,weatherlink.com 1.10,2013-12-15 15:26:00,
2013-12-15 10:41:00,34.7,30.0,29.86,NNW,328,2.0,10.0,83,0.00,,,0.01,weatherlink.com 1.10,2013-12-15 15:41:00,
2013-12-15 10:56:00,34.5,30.0,29.86,WNW,300,3.0,10.0,82,0.00,,,0.01,weatherlink.com 1.10,2013-12-15 15:56:00,
2013-12-15 11:11:00,34.5,29.0,29.86,South,174,2.0,13.0,80,0.00,,,0.01,weatherlink.com 1.10,2013-12-15 16:11:00,
2013-12-15 11:26:00,34.4,29.0,29.86,SW,227,1.0,10.0,82,0.00,,,0.01,weatherlink.com 1.10,2013-12-15 16:26:00,
2013-12-15 11:41:00,34.0,28.0,29.87,WNW,285,4.0,13.0,80,0.00,,,0.01,weatherlink.com 1.10,2013-12-15 16:41:00,
2013-12-15 11:56:00,34.1,29.0,29.86,NW,319,2.0,14.0,80,0.00,,,0.01,weatherlink.com 1.10,2013-12-15 16:56:00,
2013-12-15 12:11:00,34.2,28.0,29.86,SSW,199,3.0,12.0,78,0.00,,,0.01,weatherlink.com 1.10,2013-12-15 17:11:00,
2013-12-15 12:26:00,34.4,28.0,29.86,NW,316,2.0,14.0,78,0.00,,,0.01,weatherlink.com 1.10,2013-12-15 17:26:00,
2013-12-15 12:41:00,34.1,28.0,29.86,NW,304,3.0,13.0,78,0.00,,,0.01,weatherlink.com 1.10,2013-12-15 17:41:00,
2013-12-15 12:56:00,34.1,28.0,29.86,SE,134,1.0,14.0,78,0.00,,,0.01,weatherlink.com 1.10,2013-12-15 17:56:00,
2013-12-15 13:11:00,34.3,28.0,29.85,WSW,249,5.0,10.0,78,0.00,,,0.01,weatherlink.com 1.10,2013-12-15 18:11:00,
2013-12-15 13:26:00,34.3,27.0,29.85,SSE,152,2.0,12.0,76,0.00,,,0.01,weatherlink.com 1.10,2013-12-15 18:26:00,
2013-12-15 13:41:00,34.1,27.0,29.85,SW,233,3.0,14.0,75,0.00,,,0.01,weatherlink.com 1.10,2013-12-15 18:41:00,
2013-12-15 13:56:00,33.7,27.0,29.85,SSW,195,1.0,10.0,76,0.00,,,0.01,weatherlink.com 1.10,2013-12-15 18:56:00,
2013-12-15 14:11:00,33.4,27.0,29.86,North,356,1.0,12.0,77,0.00,,,0.01,weatherlink.com 1.10,2013-12-15 19:11:00,
2013-12-15 14:26:00,33.1,27.0,29.86,West,270,2.0,12.0,78,0.00,,,0.01,weatherlink.com 1.10,2013-12-15 19:26:00,
2013-12-15 14:41:00,32.9,27.0,29.87,NE,35,10.0,12.0,79,0.00,,,0.01,weatherlink.com 1.10,2013-12-15 19:41:00,
2013-12-15 14:56:00,32.2,26.0,29.88,NNE,18,3.0,9.0,79,0.00,,,0.01,weatherlink.com 1.10,2013-12-15 19:56:00,
2013-12-15 15:11:00,31.5,26.0,29.89,NNE,32,2.0,11.0,79,0.00,,,0.01,weatherlink.com 1.10,2013-12-15 20:11:00,
2013-12-15 15:26:00,31.1,26.0,29.89,NNW,327,3.0,9.0,80,0.00,,,0.01,weatherlink.com 1.10,2013-12-15 20:26:00,
2013-12-15 15:41:00,30.4,26.0,29.90,South,187,1.0,8.0,82,0.00,,,0.01,weatherlink.com 1.10,2013-12-15 20:41:00,
2013-12-15 15:56:00,30.1,25.0,29.90,SW,224,2.0,13.0,81,0.00,,,0.01,weatherlink.com 1.10,2013-12-15 20:56:00,
2013-12-15 16:11:00,29.8,25.0,29.90,East,79,1.0,12.0,82,0.00,,,0.01,weatherlink.com 1.10,2013-12-15 21:11:00,
2013-12-15 16:26:00,29.0,25.0,29.91,WSW,250,10.0,10.0,84,0.00,,,0.01,weatherlink.com 1.10,2013-12-15 21:26:00,
2013-12-15 16:41:00,28.8,24.0,29.91,SW,236,0.0,10.0,82,0.00,,,0.01,weatherlink.com 1.10,2013-12-15 21:41:00,
2013-12-15 16:56:00,28.5,23.0,29.91,SSW,210,1.0,13.0,81,0.00,,,0.01,weatherlink.com 1.10,2013-12-15 21:56:00,
2013-12-15 17:11:00,27.9,23.0,29.92,SSW,193,2.0,15.0,83,0.00,,,0.01,weatherlink.com 1.10,2013-12-15 22:11:00,
2013-12-15 17:26:00,27.5,23.0,29.92,NNE,13,1.0,10.0,84,0.00,,,0.01,weatherlink.com 1.10,2013-12-15 22:26:00,
2013-12-15 17:41:00,27.4,23.0,29.93,SW,214,9.0,11.0,84,0.00,,,0.01,weatherlink.com 1.10,2013-12-15 22:41:00,
2013-12-15 17:57:00,27.2,23.0,29.94,West,260,0.0,12.0,84,0.00,,,0.01,weatherlink.com 1.10,2013-12-15 22:57:00,
2013-12-15 18:12:00,27.0,23.0,29.94,WNW,285,1.0,8.0,85,0.00,,,0.01,weatherlink.com 1.10,2013-12-15 23:12:00,
2013-12-15 18:27:00,26.9,23.0,29.94,SSW,196,3.0,13.0,86,0.00,,,0.01,weatherlink.com 1.10,2013-12-15 23:27:00,
2013-12-15 18:42:00,27.1,24.0,29.94,WSW,255,10.0,11.0,86,0.00,,,0.01,weatherlink.com 1.10,2013-12-15 23:42:00,
2013-12-15 18:57:00,26.9,24.0,29.95,SSW,193,1.0,10.0,87,0.00,,,0.01,weatherlink.com 1.10,2013-12-15 23:57:00,
2013-12-15 19:12:00,26.9,24.0,29.96,WNW,283,2.0,11.0,87,0.00,,,0.01,weatherlink.com 1.10,2013-12-16 00:12:00,
2013-12-15 19:27:00,26.8,24.0,29.96,WSW,240,4.0,10.0,88,0.00,,,0.01,weatherlink.com 1.10,2013-12-16 00:27:00,
2013-12-15 19:42:00,26.8,24.0,29.96,WNW,302,4.0,10.0,88,0.00,,,0.01,weatherlink.com 1.10,2013-12-16 00:42:00,
2013-12-15 19:57:00,26.7,23.0,29.95,SSW,205,3.0,16.0,87,0.00,,,0.01,weatherlink.com 1.10,2013-12-16 00:57:00,
2013-12-15 20:12:00,26.4,23.0,29.96,NNW,341,0.0,11.0,88,0.00,,,0.01,weatherlink.com 1.10,2013-12-16 01:12:00,
2013-12-15 20:27:00,26.4,23.0,29.97,South,181,1.0,5.0,88,0.00,,,0.01,weatherlink.com 1.10,2013-12-16 01:27:00,
2013-12-15 20:42:00,26.5,23.0,29.97,WNW,293,2.0,7.0,88,0.00,,,0.01,weatherlink.com 1.10,2013-12-16 01:42:00,
2013-12-15 20:58:00,26.3,24.0,29.97,West,260,0.0,8.0,89,0.00,,,0.01,weatherlink.com 1.10,2013-12-16 01:58:00,
2013-12-15 21:12:00,26.3,24.0,29.98,SW,229,2.0,7.0,89,0.00,,,0.01,weatherlink.com 1.10,2013-12-16 02:12:00,
2013-12-15 21:27:00,26.9,24.0,29.98,West,267,1.0,12.0,89,0.00,,,0.01,weatherlink.com 1.10,2013-12-16 02:27:00,
2013-12-15 21:42:00,27.0,24.0,29.98,SW,227,5.0,10.0,89,0.00,,,0.01,weatherlink.com 1.10,2013-12-16 02:42:00,
2013-12-15 21:57:00,27.1,25.0,29.97,South,184,8.0,12.0,90,0.00,,,0.01,weatherlink.com 1.10,2013-12-16 02:57:00,
2013-12-15 22:12:00,27.2,24.0,29.97,SW,236,4.0,10.0,89,0.00,,,0.01,weatherlink.com 1.10,2013-12-16 03:12:00,
2013-12-15 22:27:00,27.3,25.0,29.97,SW,228,3.0,14.0,89,0.00,,,0.01,weatherlink.com 1.10,2013-12-16 03:27:00,
2013-12-15 22:42:00,27.9,25.0,29.97,WSW,238,2.0,10.0,88,0.00,,,0.01,weatherlink.com 1.10,2013-12-16 03:42:00,
2013-12-15 22:57:00,28.1,25.0,29.98,SSW,200,6.0,12.0,87,0.00,,,0.01,weatherlink.com 1.10,2013-12-16 03:57:00,
2013-12-15 23:12:00,28.4,25.0,29.98,WSW,252,2.0,10.0,86,0.00,,,0.01,weatherlink.com 1.10,2013-12-16 04:12:00,
2013-12-15 23:27:00,29.0,25.0,29.98,WSW,248,3.0,9.0,83,0.00,,,0.01,weatherlink.com 1.10,2013-12-16 04:27:00,
2013-12-15 23:42:00,29.2,24.0,29.98,SSW,211,0.0,9.0,82,0.00,,,0.01,weatherlink.com 1.10,2013-12-16 04:42:00,
2013-12-15 23:57:00,29.5,24.0,29.98,SW,219,1.0,11.0,81,0.00,,,0.01,weatherlink.com 1.10,2013-12-16 04:57:00,